Orbital Elements at Epoch 2459200.5 (2020-Dec-17.0) TDB
Reference: JPL 10 (heliocentric ecliptic J2000)
Element | Value | Uncertainty (1-sigma) | Units |
e | .1622420849408109 | 6.1962e-08 | |
a | 2.445175962173339 | 1.4465e-08 | au |
q | 2.048465516023183 | 1.5041e-07 | au |
i | 16.00940344242619 | 1.4346e-05 | deg |
node | 18.77777543633725 | 3.0148e-05 | deg |
peri | 259.1824453231576 | 5.8988e-05 | deg |
M | 78.17541528659 | 4.8346e-05 | deg |
tp | 2458897.228709245515 (2020-Feb-17.72870925) | 0.00018778 | TDB |
period | 1396.572877436861 3.82 | 1.2392e-05 3.393e-08 | d yr |
n | .2577738733267614 | 2.2873e-09 | deg/d |
Q | 2.841886408323495 | 1.6811e-08 | au |
|
| | Orbit Determination Parameters
Additional Information
|